EW0214 Weather Reports


time (UTC)temp
F
wind
direction
speed
knots
gust
knots
rain 1hr
in
rain 24hr
in
rain mn
in
humidity
%
barometer
mb
20260509034826 74 145 0.9 3.5 0.00 0.00 0.00 82 1010.1
20260509034319 74 144 0.0 1.7 0.00 0.00 0.00 82 1010.1
20260509033813 74 144 0.0 1.7 0.00 0.00 0.00 82 1010.1
20260509033307 74 144 0.0 0.9 0.00 0.00 0.00 82 1010.1
20260509032801 74 144 0.0 1.7 0.00 0.00 0.00 82 1010.1
20260509032255 74 144 0.0 1.7 0.00 0.00 0.00 82 1010.1
20260509031749 74 144 0.0 0.9 0.00 0.00 0.00 82 1010.0
20260509031242 74 144 0.9 3.5 0.00 0.00 0.00 82 1010.0
20260509030737 74 144 1.7 4.3 0.00 0.00 0.00 81 1010.0
20260509030231 74 142 1.7 4.3 0.00 0.00 0.00 81 1009.7
20260509025725 75 145 0.9 3.5 0.00 0.00 0.00 81 1009.7
20260509025220 75 146 1.7 3.5 0.00 0.00 0.00 81 1009.7
20260509024944 75 146 1.7 3.5 0.00 0.00 0.00 80 1009.7
20260509024206 75 148 0.9 2.6 0.00 0.00 0.00 80 1009.6
20260509023702 75 147 0.9 2.6 0.00 0.00 0.00 80 1009.7
20260509023428 76 147 0.9 2.6 0.00 0.00 0.00 79 1009.6
20260509022649 76 147 0.9 2.6 0.00 0.00 0.00 79 1009.6
20260509022143 76 147 1.7 4.3 0.00 0.00 0.00 79 1009.6
20260509021637 76 147 1.7 4.3 0.00 0.00 0.00 79 1009.4
20260509021131 76 117 0.9 3.5 0.00 0.00 0.00 79 1009.2
20260509020625 76 117 1.7 3.5 0.00 0.00 0.00 79 1009.2
20260509020119 76 136 2.6 5.2 0.00 0.00 0.00 79 1009.1
20260509015613 76 140 2.6 5.2 0.00 0.00 0.00 79 1009.0
20260509015107 76 154 1.7 4.3 0.00 0.00 0.00 78 1008.9
20260509014601 76 144 1.7 5.2 0.00 0.00 0.00 78 1008.9
20260509014055 77 140 2.6 5.2 0.00 0.00 0.00 78 1008.9
20260509013549 77 112 2.6 5.2 0.00 0.00 0.00 78 1008.9
20260509013043 77 137 1.7 6.1 0.00 0.00 0.00 78 1008.9
20260509012537 77 158 1.7 6.1 0.00 0.00 0.00 77 1008.9
20260509012037 77 142 1.7 5.2 0.00 0.00 0.00 77 1008.9
20260509011805 77 150 2.6 6.1 0.00 0.00 0.00 77 1008.9
20260509011039 77 138 2.6 6.1 0.00 0.00 0.00 76 1008.8
20260509011033 77 140 2.6 6.1 0.00 0.00 0.00 77 1008.8
20260509010035 77 150 2.6 6.1 0.00 0.00 0.00 76 1008.8
20260509005535 78 150 1.7 4.3 0.00 0.00 0.00 76 1008.7
20260509005034 78 136 1.7 4.3 0.00 0.00 0.00 76 1008.6
20260509004530 78 155 2.6 6.1 0.00 0.00 0.00 76 1008.7
20260509004030 78 159 2.6 6.1 0.00 0.00 0.00 75 1008.6
20260509003530 78 139 2.6 6.1 0.00 0.00 0.00 75 1008.6
20260509003301 78 182 2.6 6.1 0.00 0.00 0.00 75 1008.7
20260509002532 78 153 2.6 7.0 0.00 0.00 0.00 75 1008.7
20260509002029 78 153 2.6 7.0 0.00 0.00 0.00 75 1008.7
20260509001530 78 140 2.6 6.1 0.00 0.00 0.00 74 1008.7
20260509001303 79 166 2.6 6.1 0.00 0.00 0.00 74 1008.8
20260509000526 79 153 2.6 7.8 0.00 0.00 0.00 74 1008.9
20260509000026 79 146 2.6 7.8 0.00 0.00 0.00 74 1008.9
20260508235757 79 188 3.5 7.0 0.00 0.00 0.00 74 1008.8
20260508235026 79 180 3.5 8.7 0.00 0.00 0.00 74 1008.8
20260508234527 79 122 3.5 8.7 0.00 0.00 0.00 73 1008.8
20260508234026 79 148 3.5 7.0 0.00 0.00 0.00 73 1008.8
20260508233526 79 151 3.5 8.7 0.00 0.00 0.00 73 1008.8
20260508233026 79 150 2.6 8.7 0.00 0.00 0.00 73 1008.8
20260508232527 80 152 2.6 9.6 0.00 0.00 0.00 72 1008.7
20260508232023 80 140 3.5 9.6 0.00 0.00 0.00 72 1008.7
20260508231520 80 163 3.5 7.8 0.00 0.00 0.00 72 1008.7
20260508231021 80 137 2.6 6.1 0.00 0.00 0.00 72 1008.8
20260508230521 80 131 2.6 6.1 0.00 0.00 0.00 72 1008.8
20260508230020 80 150 3.5 7.8 0.00 0.00 0.00 72 1008.8
20260508225519 80 191 3.5 7.8 0.00 0.00 0.00 71 1008.8
20260508225020 80 142 2.6 5.2 0.00 0.00 0.00 71 1008.9
20260508224520 80 125 2.6 7.8 0.00 0.00 0.00 71 1008.8
20260508224020 80 149 2.6 7.8 0.00 0.00 0.00 70 1008.8
20260508223520 80 180 2.6 6.1 0.00 0.00 0.00 70 1008.8
20260508223015 80 162 2.6 7.8 0.00 0.00 0.00 70 1008.8
20260508222507 81 141 2.6 7.8 0.00 0.00 0.00 70 1008.8
20260508222002 80 117 2.6 7.8 0.00 0.00 0.00 71 1008.9
20260508221726 80 169 2.6 7.8 0.00 0.00 0.00 70 1008.9
20260508221221 80 173 2.6 6.1 0.00 0.00 0.00 70 1008.9
20260508220444 80 166 2.6 5.2 0.00 0.00 0.00 70 1009.0
20260508215938 81 152 2.6 7.0 0.00 0.00 0.00 70 1009.0
20260508215432 81 150 2.6 7.8 0.00 0.00 0.00 70 1009.0
20260508215159 81 188 2.6 7.8 0.00 0.00 0.00 70 1009.0
20260508214420 80 148 3.5 7.8 0.00 0.00 0.00 70 1009.0
20260508213914 80 169 2.6 7.8 0.00 0.00 0.00 70 1009.0
20260508213408 80 144 1.7 5.2 0.00 0.00 0.00 71 1009.1
20260508212901 80 150 2.6 7.8 0.00 0.00 0.00 70 1009.1
20260508212354 80 137 3.5 8.7 0.00 0.00 0.00 70 1009.3
20260508211849 80 153 2.6 8.7 0.00 0.00 0.00 70 1009.2
20260508211344 80 116 2.6 7.0 0.00 0.00 0.00 70 1009.3
20260508211338 80 145 2.6 7.0 0.00 0.00 0.00 69 1009.4
20260508210330 80 144 2.6 7.0 0.00 0.00 0.00 69 1009.6
20260508205824 80 96 2.6 7.0 0.00 0.00 0.00 69 1009.7
20260508205318 80 142 2.6 7.0 0.00 0.00 0.00 69 1009.7
20260508204812 81 167 2.6 7.0 0.00 0.00 0.00 68 1009.7
20260508204306 81 80 2.6 5.2 0.00 0.00 0.00 67 1009.7
20260508203800 81 133 3.5 8.7 0.00 0.00 0.00 68 1009.8
20260508203254 82 140 2.6 8.7 0.00 0.00 0.00 66 1009.8
20260508202748 82 113 1.7 7.0 0.00 0.00 0.00 67 1009.9
20260508202242 82 136 2.6 5.2 0.00 0.00 0.00 68 1009.9
20260508201736 81 135 2.6 7.8 0.00 0.00 0.00 67 1010.0
20260508201230 81 132 2.6 7.8 0.00 0.00 0.00 68 1010.0
20260508200724 81 142 2.6 7.8 0.00 0.00 0.00 67 1010.0
20260508200218 81 130 2.6 7.8 0.00 0.00 0.00 67 1010.2
20260508195712 81 36 2.6 7.8 0.00 0.00 0.00 67 1010.0
20260508195205 81 163 3.5 7.8 0.00 0.00 0.00 67 1010.1
20260508194700 81 134 2.6 7.8 0.00 0.00 0.00 66 1010.2
20260508194153 81 192 2.6 7.8 0.00 0.00 0.00 67 1010.3
20260508193648 81 134 2.6 6.1 0.00 0.00 0.00 69 1010.4
20260508193142 80 157 2.6 6.1 0.00 0.00 0.00 69 1010.4
20260508192636 79 59 2.6 6.1 0.00 0.00 0.00 69 1010.5
20260508192129 79 73 2.6 6.1 0.00 0.00 0.00 68 1010.7
20260508191855 79 153 2.6 6.1 0.00 0.00 0.00 68 1010.8
20260508191118 79 128 2.6 6.1 0.00 0.00 0.00 68 1010.9
20260508190614 79 126 2.6 6.1 0.00 0.00 0.00 68 1010.9
20260508190609 79 148 2.6 6.1 0.00 0.00 0.00 67 1010.8
20260508185606 79 136 2.6 7.0 0.00 0.00 0.00 67 1010.9
20260508185102 79 104 2.6 7.0 0.00 0.00 0.00 67 1011.0
20260508184603 79 57 2.6 6.1 0.00 0.00 0.00 68 1010.9
20260508184103 79 96 2.6 6.1 0.00 0.00 0.00 67 1011.0
20260508183602 79 133 2.6 6.1 0.00 0.00 0.00 68 1011.1
20260508183101 78 144 2.6 7.0 0.00 0.00 0.00 68 1011.2
20260508182830 78 135 2.6 7.0 0.00 0.00 0.00 68 1011.5
20260508182059 78 145 2.6 7.8 0.00 0.00 0.00 69 1011.6
20260508181603 78 133 3.5 7.0 0.00 0.00 0.00 67 1011.6
20260508181558 78 40 3.5 7.8 0.00 0.00 0.00 68 1011.5
20260508181215 78 163 2.6 7.0 0.00 0.00 0.00 67 1011.7
20260508180324 78 188 1.7 7.0 0.00 0.00 0.00 68 1011.7
20260508175553 78 135 2.6 7.0 0.00 0.00 0.00 66 1011.8
20260508175053 78 161 2.6 7.0 0.00 0.00 0.00 65 1011.8
20260508174554 79 143 1.7 5.2 0.00 0.00 0.00 64 1011.8
20260508174053 80 33 2.6 6.1 0.00 0.00 0.00 64 1011.8
20260508173554 80 152 1.7 6.1 0.00 0.00 0.00 64 1011.8
20260508173054 80 78 1.7 5.2 0.00 0.00 0.00 65 1011.8
20260508172822 80 346 0.9 3.5 0.00 0.00 0.00 64 1012.0
20260508172049 80 348 1.7 5.2 0.00 0.00 0.00 64 1012.1
20260508171550 79 347 1.7 5.2 0.00 0.00 0.00 66 1012.1
20260508171049 79 5 0.9 4.3 0.00 0.00 0.00 68 1012.0
20260508170550 78 351 0.9 4.3 0.00 0.00 0.00 68 1012.0
20260508170054 77 0 1.7 5.2 0.00 0.00 0.00 69 1012.1
20260508170049 78 355 1.7 5.2 0.00 0.00 0.00 69 1012.1
20260508165049 77 30 1.7 7.0 0.00 0.00 0.00 68 1012.2
20260508164548 76 15 1.7 7.0 0.00 0.00 0.00 70 1012.1
20260508164048 75 5 0.9 5.2 0.00 0.00 0.00 72 1012.2
20260508163551 74 98 0.0 2.6 0.00 0.00 0.00 73 1012.2
20260508163049 74 153 0.0 5.2 0.00 0.00 0.00 72 1012.3
20260508162549 73 153 0.9 5.2 0.00 0.00 0.00 72 1012.5
20260508162048 73 153 1.7 6.1 0.00 0.00 0.00 73 1012.6
20260508161550 72 134 1.7 6.1 0.00 0.00 0.00 73 1012.9
20260508161045 71 96 0.9 2.6 0.00 0.00 0.00 75 1012.9
20260508160546 71 96 0.0 2.6 0.00 0.00 0.00 74 1012.9
20260508160316 70 97 0.0 2.6 0.00 0.00 0.00 73 1013.0
20260508155545 70 97 0.9 2.6 0.00 0.00 0.00 73 1013.1
20260508155046 70 96 0.9 2.6 0.00 0.00 0.00 73 1013.2
20260508154545 70 95 0.9 2.6 0.00 0.00 0.00 74 1013.2
20260508154045 70 95 0.0 2.6 0.00 0.00 0.00 74 1013.3
20260508153545 69 96 0.0 2.6 0.00 0.00 0.00 74 1013.4
20260508153047 69 96 0.9 2.6 0.00 0.00 0.00 75 1013.3
20260508152545 69 94 0.9 2.6 0.00 0.00 0.00 75 1013.5
20260508152044 68 94 0.9 2.6 0.00 0.00 0.00 75 1013.5
20260508151546 68 94 0.9 2.6 0.00 0.00 0.00 75 1013.5
20260508151046 68 128 0.9 3.5 0.00 0.00 0.00 75 1013.6
20260508150545 68 127 1.7 3.5 0.00 0.00 0.00 75 1013.6
20260508150045 67 152 1.7 6.1 0.00 0.00 0.00 76 1013.7
20260508145545 67 148 1.7 6.1 0.00 0.00 0.00 75 1013.8
20260508145043 67 137 1.7 4.3 0.00 0.00 0.00 75 1013.8
20260508144543 67 135 2.6 5.2 0.00 0.00 0.00 76 1013.7
20260508144309 66 153 2.6 5.2 0.00 0.00 0.00 76 1013.7
20260508143531 66 144 1.7 4.3 0.00 0.00 0.00 76 1013.7
20260508143026 66 142 1.7 4.3 0.00 0.00 0.00 77 1013.7
20260508142520 65 142 2.6 5.2 0.00 0.00 0.00 77 1013.5
20260508142013 65 98 1.7 5.2 0.00 0.00 0.00 77 1013.5
20260508141507 65 161 1.7 4.3 0.00 0.00 0.00 78 1013.7
20260508141233 65 109 0.9 3.5 0.00 0.00 0.00 78 1013.8
20260508140455 64 94 0.9 3.5 0.00 0.00 0.00 78 1013.7
20260508140220 64 92 1.7 3.5 0.00 0.00 0.00 78 1013.8
20260508135444 64 34 1.7 3.5 0.00 0.00 0.00 78 1013.8
20260508134937 64 25 1.7 3.5 0.00 0.00 0.00 78 1013.8
20260508134431 64 16 0.9 3.5 0.00 0.00 0.00 79 1013.9
20260508133925 64 17 0.9 2.6 0.00 0.00 0.00 79 1014.0
20260508133419 64 14 0.9 2.6 0.00 0.00 0.00 79 1013.9
20260508132913 63 13 0.0 2.6 0.00 0.00 0.00 78 1014.0
20260508132407 63 13 0.0 1.7 0.00 0.00 0.00 79 1014.1
20260508131901 63 13 0.0 1.7 0.00 0.00 0.00 79 1014.2
20260508131356 63 13 0.0 1.7 0.00 0.00 0.00 79 1014.1
20260508130849 63 13 0.0 2.6 0.00 0.00 0.00 79 1013.7
20260508130343 63 13 0.0 2.6 0.00 0.00 0.00 78 1013.8
20260508125837 63 13 0.0 0.9 0.00 0.00 0.00 78 1013.8
20260508125331 63 13 0.0 1.7 0.00 0.00 0.00 78 1013.9
20260508124825 63 13 0.9 2.6 0.00 0.00 0.00 78 1014.0
20260508124319 63 13 0.9 2.6 0.00 0.00 0.00 78 1014.0
20260508123813 63 13 0.0 1.7 0.00 0.00 0.00 78 1014.2
20260508123538 63 13 0.0 1.7 0.00 0.00 0.00 78 1014.0
20260508122801 63 13 0.9 2.6 0.00 0.00 0.00 78 1013.9
20260508122255 63 13 0.9 2.6 0.00 0.00 0.00 78 1013.9
20260508121749 63 13 0.0 3.5 0.00 0.00 0.00 78 1013.9
20260508121245 63 13 0.0 3.5 0.00 0.00 0.00 78 1014.0
20260508120736 63 14 0.0 0.0 0.00 0.00 0.00 79 1014.2
20260508120231 63 14 0.0 0.0 0.00 0.00 0.00 78 1014.4
20260508115725 63 14 0.0 1.7 0.00 0.00 0.00 79 1014.4
20260508115219 63 14 0.0 1.7 0.00 0.00 0.00 79 1014.4
20260508114713 63 14 0.0 0.9 0.00 0.00 0.00 78 1014.5
20260508114208 63 14 0.0 0.9 0.00 0.00 0.00 78 1014.6
20260508113701 63 14 0.0 0.9 0.00 0.00 0.00 78 1014.5
20260508113426 63 14 0.0 0.0 0.00 0.00 0.00 78 1014.7
20260508112649 63 14 0.0 0.0 0.00 0.00 0.00 78 1014.6
20260508112145 63 14 0.0 0.9 0.00 0.00 0.00 78 1014.6
20260508112140 63 14 0.0 0.9 0.00 0.00 0.00 78 1014.5
20260508111132 62 14 0.0 1.7 0.00 0.00 0.00 78 1014.5
20260508110627 63 14 0.0 1.7 0.00 0.00 0.00 78 1014.4
20260508110622 62 14 0.0 0.0 0.00 0.00 0.00 78 1014.4
20260508105612 62 14 0.0 0.0 0.00 0.00 0.00 78 1014.4
20260508105107 62 14 0.0 0.9 0.00 0.00 0.00 78 1014.2
20260508104601 62 14 0.0 0.9 0.00 0.00 0.00 78 1014.1
20260508104055 62 14 0.0 1.7 0.00 0.00 0.00 78 1014.3
20260508103549 63 14 0.0 1.7 0.00 0.00 0.00 78 1014.5
20260508103043 62 14 0.0 1.7 0.00 0.00 0.00 78 1014.4
20260508102537 63 14 0.0 2.6 0.00 0.00 0.00 78 1014.5
20260508102031 62 14 0.0 2.6 0.00 0.00 0.00 78 1014.1
20260508101525 63 15 0.9 3.5 0.00 0.00 0.00 78 1014.3
20260508101019 63 15 0.9 3.5 0.00 0.00 0.00 78 1014.2
20260508100513 63 24 0.0 3.5 0.00 0.00 0.00 78 1014.2
20260508100007 63 51 0.0 1.7 0.00 0.00 0.00 78 1014.5
20260508095731 63 51 0.0 1.7 0.00 0.00 0.00 78 1014.3
20260508094954 63 51 0.9 2.6 0.00 0.00 0.00 78 1014.3
20260508094450 63 51 0.9 2.6 0.00 0.00 0.00 78 1014.2
20260508093943 63 51 0.0 2.6 0.00 0.00 0.00 78 1014.4
20260508093438 63 51 0.0 2.6 0.00 0.00 0.00 78 1014.5
20260508092932 63 52 0.0 0.9 0.00 0.00 0.00 78 1014.7
20260508092425 63 52 0.0 1.7 0.00 0.00 0.00 77 1014.7
20260508091921 63 52 0.0 1.7 0.00 0.00 0.00 77 1014.6
20260508091915 63 53 0.0 0.9 0.00 0.00 0.00 77 1014.5
20260508090907 63 53 0.0 0.9 0.00 0.00 0.00 77 1014.4
20260508090401 63 53 0.0 0.9 0.00 0.00 0.00 77 1014.2
20260508085856 63 53 0.0 0.0 0.00 0.00 0.00 77 1013.9
20260508085348 63 53 0.0 0.0 0.00 0.00 0.00 77 1013.9
20260508084846 63 53 0.0 0.0 0.00 0.00 0.00 77 1013.9
20260508084346 63 53 0.0 0.0 0.00 0.00 0.00 77 1014.2
20260508083846 63 53 0.0 0.0 0.00 0.00 0.00 76 1014.1
20260508083345 63 53 0.0 0.0 0.00 0.00 0.00 76 1014.1
20260508082845 63 53 0.0 0.0 0.00 0.00 0.00 76 1014.2
20260508082343 63 53 0.0 0.0 0.00 0.00 0.00 76 1014.2
20260508081841 63 53 0.0 0.0 0.00 0.00 0.00 76 1014.5
20260508081344 63 53 0.0 0.0 0.00 0.00 0.00 76 1014.3
20260508081113 63 53 0.0 0.0 0.00 0.00 0.00 76 1014.3
20260508080341 63 53 0.0 0.9 0.00 0.00 0.00 76 1014.4
20260508080112 63 53 0.0 1.7 0.00 0.00 0.00 76 1014.5
20260508075343 62 53 0.0 1.7 0.00 0.00 0.00 76 1014.2
20260508075110 62 53 0.0 0.0 0.00 0.00 0.00 76 1014.1
20260508074337 62 53 0.0 0.0 0.00 0.00 0.00 76 1014.3
20260508073843 62 53 0.0 0.9 0.00 0.00 0.00 76 1014.4
20260508073838 62 53 0.0 0.9 0.00 0.00 0.00 76 1014.3
20260508072839 62 52 0.0 1.7 0.00 0.00 0.00 76 1014.3
20260508072337 62 52 0.9 2.6 0.00 0.00 0.00 76 1014.3
20260508071838 62 51 0.9 2.6 0.00 0.00 0.00 76 1014.1
20260508071339 62 52 0.9 2.6 0.00 0.00 0.00 76 1014.3
20260508070839 62 53 0.9 3.5 0.00 0.00 0.00 76 1014.5
20260508070335 62 53 0.9 3.5 0.00 0.00 0.00 76 1014.3
20260508065835 62 53 0.9 3.5 0.00 0.00 0.00 77 1014.3
20260508065335 62 55 0.0 0.0 0.00 0.00 0.00 77 1014.6
20260508064834 62 55 0.0 0.0 0.00 0.00 0.00 77 1014.7
20260508064335 62 55 0.0 0.0 0.00 0.00 0.00 76 1014.8
20260508063833 62 55 0.0 0.0 0.00 0.00 0.00 76 1014.9
20260508063335 62 55 0.0 0.0 0.00 0.00 0.00 76 1015.0
20260508062833 62 55 0.0 0.0 0.00 0.00 0.00 76 1015.4
20260508062335 62 55 0.0 0.0 0.00 0.00 0.00 76 1015.3
20260508061833 62 55 0.0 0.0 0.00 0.00 0.00 76 1015.2
20260508061335 62 55 0.0 0.0 0.00 0.00 0.00 76 1015.3
20260508060834 62 55 0.0 0.0 0.00 0.00 0.00 76 1015.2
20260508060334 62 55 0.0 0.0 0.00 0.00 0.00 75 1015.2
20260508060105 62 55 0.0 0.0 0.00 0.00 0.00 75 1015.0
20260508055334 62 55 0.0 0.0 0.00 0.00 0.00 75 1014.9
20260508054831 62 55 0.0 0.0 0.00 0.00 0.00 75 1015.0
20260508054331 62 55 0.0 0.0 0.00 0.00 0.00 75 1015.2
20260508053827 62 55 0.0 0.0 0.00 0.00 0.00 75 1015.2
20260508053327 62 55 0.0 0.0 0.00 0.00 0.00 75 1015.4
20260508052823 62 55 0.0 0.0 0.00 0.00 0.00 75 1015.2
20260508052552 63 55 0.0 0.0 0.00 0.00 0.00 74 1015.1
20260508051820 62 55 0.0 0.0 0.00 0.00 0.00 75 1015.1
20260508051547 62 55 0.0 0.0 0.00 0.00 0.00 74 1015.0
20260508050818 62 55 0.0 1.7 0.00 0.00 0.00 74 1014.8
20260508050547 63 55 0.9 1.7 0.00 0.00 0.00 74 1014.8
20260508045814 63 55 0.9 1.7 0.00 0.00 0.00 74 1015.0
20260508045313 63 55 0.0 1.7 0.00 0.00 0.00 74 1015.2
20260508044812 63 55 0.0 2.6 0.00 0.00 0.00 74 1015.3
20260508044312 63 55 0.9 2.6 0.00 0.00 0.00 73 1016.0
20260508044041 63 56 0.9 2.6 0.00 0.00 0.00 73 1015.4
20260508043311 63 57 0.9 2.6 0.00 0.00 0.00 73 1014.4
20260508042811 63 55 0.0 2.6 0.00 0.00 0.00 73 1014.4
20260508042312 63 55 0.0 2.6 0.00 0.00 0.00 73 1015.0
20260508041811 63 55 0.9 2.6 0.00 0.00 0.00 73 1014.9
20260508041312 63 55 0.0 1.7 0.00 0.00 0.00 73 1015.1
20260508040811 63 55 0.0 0.9 0.00 0.00 0.00 73 1015.2
20260508040310 63 55 0.0 2.6 0.00 0.00 0.00 72 1015.4
20260508035809 63 55 0.0 2.6 0.00 0.00 0.00 72 1015.5
20260508035539 63 55 0.0 2.6 0.00 0.00 0.00 72 1015.6